Preview of NWS' New Version of Forecast
This preview is not operational and should not be used for support decisions.

Regional Weather Roundup (RWR)

Issued by National Weather Service (NWS)

                            
000
ASUS42 KTBW 250115
RWRFL 
FLORIDA REGIONAL WEATHER ROUNDUP
NATIONAL WEATHER SERVICE TAMPA BAY RUSKIN FL
900 PM EDT MON JUN 24 2019

NOTE: "FAIR" INDICATES FEW OR NO CLOUDS BELOW 12,000 FEET WITH NO
SIGNIFICANT WEATHER AND/OR OBSTRUCTIONS TO VISIBILITY.

FLZ001>010-012>015-112-114-115-250200-
PANHANDLE FLORIDA
  
CITY           SKY/WX    TMP DP  RH WIND       PRES   REMARKS
PENSACOLA      FAIR      85  75  72 SW7       29.96S                  
PENSACOLA NAS  MOCLDY    83  76  79 SW7       29.96S                  
MILTON NAS     MOCLDY    81  74  79 SW5       29.96S                  
CRESTVIEW      FAIR      84  70  62 SW6       29.97S                  
DUKE FIELD     FAIR      83  74  72 SW7       29.96S                  
VALPARAISO     FAIR      84  75  73 SW8       29.96S                  
MARY ESTHER    MOCLDY    84  77  81 SW7       29.95S                  
PANAMA CITY    FAIR      84  78  82 SW7       29.97S HX  95           
TYNDALL AFB    FAIR      85  78  81 SW12      29.98R HAZE    HX  96   
APALACHICOLA   FAIR      85  76  74 SW10      29.99R                  

STATION/POSITION SKY/WX   TEMP    WIND        PRES    WAVE   SWELL
                          AIR SEA DIR/SP/G            HT/PER HT/PER
                          (F)     (DEG/KT/KT) (MB)    (FT/S) (FT/S)
30.1N   87.6W                                   N/A     3/ 6
29.2N   88.2W                     200/  8/  8 1015.9R   3/ 6   3/ 6
PANAMA CITY BEAC           84 86  230/ 12/ 14 1015.4F
TOWER C          NOT AVBL

$$
FLZ011-016>038-118-127-128-134-139-239-250200-
NORTH FLORIDA
  
CITY           SKY/WX    TMP DP  RH WIND       PRES   REMARKS
MARIANNA       FAIR      83  74  74 SW7       29.96R                  
TALLAHASSEE    MOCLDY    87  77  72 SW7       29.98R HX  99           
PERRY          FAIR      84  79  85 SW6       30.01R HX  97           
LIVE OAK       MOCLDY    75  68  78 NW6G16    30.04R                  
CROSS CITY     FAIR      83  78  83 SW5       30.01R                  
LAKE CITY      FAIR      82  73  74 W5        30.01R                  
GAINESVILLE    FAIR      84  71  65 W9        30.03R                  
PALATKA        FAIR      84  72  65 SW7       30.00R                  
MAYPORT NAS    FAIR      85  77  77 SW6       29.96R HX  95           
JACKSONVILLE   FAIR      86  70  58 SW8       29.96R                  
JAX NAS        FAIR      93  66  40 W9        29.98R HX  96           
JAX CECIL      CLEAR     86  68  54 SW8       29.98R                  
FERNANDINA BEA FAIR      83  79  85 S5        29.96R                  
ST AUGUSTINE   FAIR      86  72  62 SW3       29.98R                  
PALM COAST     FAIR      82  77  84 CALM      29.99R HAZE             

STATION/POSITION SKY/WX   TEMP    WIND        PRES    WAVE   SWELL
                          AIR SEA DIR/SP/G            HT/PER HT/PER
                          (F)     (DEG/KT/KT) (MB)    (FT/S) (FT/S)
SHELL POINT      NOT AVBL
KEATON BEACH               85     240/ 16/ 17 1015.9R
CEDAR KEY                  85     260/  7/ 10 1016.2R
FERNANDINA                 87 87  150/  5/  6 1014.9R
30.7N   81.3W                 83                N/A     2/ 9
MAYPORT                    85 84  160/  4/  5 1014.6R
31.4N   80.9W              84 83  200/ 16/ 17 1013.3F   2/ 3   2/ 9
ST AUGUSTINE               83 83  190/  6/  7 1015.3R

$$
FLZ040-043>046-052-053-057-058-063-144-250200-
INTERIOR CENTRAL FLORIDA
  
CITY           SKY/WX    TMP DP  RH WIND       PRES   REMARKS
OCALA          FAIR      83  75  77 W6        30.03R                  
LEESBURG       FAIR      84  72  67 W6        30.02S                  
SANFORD        FAIR      87  68  52 W6        29.99S                  
ORLANDO EXEC   FAIR      90  67  46 W10       30.00S                  
ORLANDO INTL   FAIR      89  67  47 W9        30.00S                  
KISSIMMEE      FAIR      87  72  60 W7        30.02R                  
WINTER HAVEN   FAIR      87  70  56 NW7       30.03R                  
LAKELAND       CLEAR     84  70  61 NW5       30.03R                  
SEBRING        FAIR      89  70  54 NW6       30.01S                  
OKEECHOBEE     FAIR      82  72  69 E5        30.00S                  

$$
FLZ041-047-054-059-064-141-147-250200-
EAST CENTRAL FLORIDA
  
CITY           SKY/WX    TMP DP  RH WIND       PRES   REMARKS
DAYTONA BEACH  FAIR      85  79  82 SE6       29.99S HX  98           
DELAND         FAIR      88  70  55 W5        29.99S                  
NEW SMYRNA BEA CLEAR     82  75  78 S5        30.00R                  
JFK SPACE CTR  FAIR      83  68  60 S5        29.99S                  
TITUSVILLE     CLEAR     88  77  70 S6        30.01R HX 100           
CAPE CANAVERAL FAIR      81  36  20 S5        29.99R                  
PATRICK AFB    FAIR      83  83  98 SE8       30.00R HX 100           
MELBOURNE      FAIR      86  77  74 SE8       30.00R HX  97           
VERO BEACH     FAIR      85  78  80 SE12      30.01S HX  96           
FT PIERCE      FAIR      84  78  82 SE6       30.01S HX  95           
STUART         MOCLDY    84  70  61 SE6       30.03R                  

STATION/POSITION SKY/WX   TEMP    WIND        PRES    WAVE   SWELL
                          AIR SEA DIR/SP/G            HT/PER HT/PER
                          (F)     (DEG/KT/KT) (MB)    (FT/S) (FT/S)
28.5N   80.2W              85 85  140/  8/ 10 1015.7R   1/ 6   2/ 6
28.9N   78.5W              83     300/  2/  2   N/A
TRIDENT PIER               81 76  150/  5/  6 1017.3R
28.4N   80.5W                 80                N/A     1/10
27.5N   80.2W                 83                N/A     1/ 6

$$
FLZ050-056-061-142-242-148-248-149-249-151-251-155-255-
160-260-250200-
WEST CENTRAL FLORIDA
  
CITY           SKY/WX    TMP DP  RH WIND       PRES   REMARKS
CRYSTAL RIVER  FAIR     N/A N/A N/A CALM      30.02S                  
INVERNESS      FAIR      81  79  94 CALM      30.03R                  
BROOKSVILLE    FAIR      80  74  81 W5        30.04R                  
CLEARWATER AIR FAIR      82  72  69 NW3       30.03S                  
ST PETE CLEARW FAIR      82  74  76 W7        30.03R                  
TAMPA INTL     FAIR      86  74  67 NW7       30.03S                  
PLANT CITY       N/A    N/A N/A N/A MISG        N/A                   
MACDILL AFB    FAIR      84  74  70 NW5       30.03R                  
PETER O KNIGHT CLOUDY    86  73  66 W3        30.03S                  
ST PETERSBURG    N/A    N/A N/A N/A MISG      30.01R                  
SARASOTA       FAIR      84  73  69 NW7       30.01S                  
VENICE         FAIR      86  75  70 NW8       30.04R HX  95           

STATION/POSITION SKY/WX   TEMP    WIND        PRES    WAVE   SWELL
                          AIR SEA DIR/SP/G            HT/PER HT/PER
                          (F)     (DEG/KT/KT) (MB)    (FT/S) (FT/S)
27.3N   84.2W                 87                N/A     2/10
CLEARWATER BEACH           84 90  280/  5/  6 1017.2R
MIDDLE TAMPA BAY           85     330/  9/ 11 1017.1R
VENICE                     85 86  300/  8/ 10 1016.7R

$$
FLZ066-069-070-075>078-162-262-165-265-250200-
SOUTHWEST FLORIDA AND KEYS
  
CITY           SKY/WX    TMP DP  RH WIND       PRES   REMARKS
PUNTA GORDA    FAIR      86  73  65 W8        30.03S                  
FT MYERS       FAIR      86  73  65 NW8       30.01R                  
SOUTHWEST INTL FAIR      86  69  56 NW3       30.01S                  
NAPLES         FAIR      88  75  65 NW7       30.01R HX  97           
IMMOKALEE      FAIR      86  70  58 MISG      30.00R                  
MARATHON       FAIR      87  73  62 E5        30.02R                  
KEY WEST NAS   FAIR      86  74  67 SE3       30.02S                  
KEY WEST INTL  FAIR      86  75  69 E3        30.03R HX  95           

STATION/POSITION SKY/WX   TEMP    WIND        PRES    WAVE   SWELL
                          AIR SEA DIR/SP/G            HT/PER HT/PER
                          (F)     (DEG/KT/KT) (MB)    (FT/S) (FT/S)
NAPLES                     87 92              1016.6R
DRY TORTUGAS               85      70/  5/  6 1016.8F
SAND KEY                   85                 1016.6F
SOMBRERO KEY               86                 1016.1R
LONG KEY                   88     100/  7/ 11 1016.9

$$
FLZ067-068-071>074-168-172>174-250200-
SOUTHEAST FLORIDA 
  
CITY           SKY/WX    TMP DP  RH WIND       PRES   REMARKS
W PALM BEACH   FAIR      87  74  64 SE7       30.03R HX  95           
BOCA RATON     CLEAR     86  73  66 SE5       30.02R                  
FT LAUDER-EXEC FAIR      86  74  67 SE7       30.02R                  
FT LAUDERDALE  FAIR      86  74  67 S6        30.01R                  
POMPANO BEACH  FAIR      87  75  67 S8        30.02R HX  96           
PEMBROKE PINES FAIR      87  75  67 S3        30.04R HX  96           
OPA LOCKA      FAIR      86  76  71 S5        30.03R HX  96           
MIAMI          FAIR      86  74  67 S3        30.02R                  
WEST KENDALL   FAIR      83  77  82 SW3       30.02R                  
HOMESTEAD      MOCLDY    82  77  83 S5        30.01R                  

STATION/POSITION SKY/WX   TEMP    WIND        PRES    WAVE   SWELL
                          AIR SEA DIR/SP/G            HT/PER HT/PER
                          (F)     (DEG/KT/KT) (MB)    (FT/S) (FT/S)
VIRGINIA KEY               87 91  150/  5/  6 1016.1R
LAKE WORTH                 85 84  180/  7/  7 1017.8R
FOWEY ROCKS                86 85  180/  8/  9 1016.7R
SETTLEMENT POINT           86     140/  2/  3 1017.0R

$$